Theta_e
329 333 335 337 343 339 337 336 338 340 339 343 346 346 349 347 346 351 347 346 345 345 330 323 327 327 326 326 325 325 326 326 326 326 326 326 326 326 326 326 326 326 326 326 325 325 324 324 326
327 333 335 337 340 342 337 336 338 340 342 343 344 345 347 350 345 343 343 343 347 346 337 324 325 327 327 327 327 327 327 327 327 327 326 326 326 326 326 326 326 326 326 326 326 327 327 327 327
330 332 333 338 339 344 338 337 338 338 341 342 344 346 349 346 349 347 347 344 344 347 344 340 325 325 327 328 328 328 328 327 327 327 327 327 327 327 326 326 326 326 326 325 325 325 326 327 327
333 333 334 337 341 339 337 337 334 339 337 341 342 343 345 345 346 347 344 344 346 352 348 338 332 325 325 326 327 327 328 328 328 329 329 329 329 328 328 327 326 326 326 326 326 325 325 325 326
330 332 335 338 337 336 335 335 333 335 337 341 341 343 343 344 345 345 345 344 348 350 338 329 335 329 326 326 326 326 327 328 330 331 333 334 335 334 333 332 329 327 327 327 326 326 326 326 327
329 332 337 339 337 335 335 335 333 335 337 340 341 343 344 345 346 347 348 348 346 348 341 334 336 335 332 330 330 330 331 332 332 333 334 334 335 336 337 337 336 332 329 327 327 327 326 327 329
330 333 336 337 337 336 334 333 330 332 337 339 341 344 345 345 346 346 346 344 344 346 347 342 339 335 336 336 337 337 335 332 330 330 330 329 329 330 329 338 335 331 331 331 329 328 327 330 335
330 332 338 338 336 336 334 332 329 331 334 337 337 343 344 346 345 344 342 341 341 341 342 347 346 345 348 344 337 334 335 340 339 341 343 343 339 342 342 343 344 342 338 332 329 328 327 336 340
330 332 335 337 336 335 334 333 329 332 334 336 339 342 342 343 343 341 340 341 341 342 345 345 347 347 349 349 342 340 341 344 340 342 343 337 344 345 341 344 341 341 339 341 334 331 334 339 340
330 331 333 332 335 335 334 333 332 331 332 334 337 339 342 342 342 342 342 341 341 342 344 344 344 344 341 342 341 345 344 338 341 338 334 339 340 340 341 340 341 338 333 336 340 339 339 340 342
330 330 330 330 329 333 334 334 333 332 333 334 337 339 342 343 342 340 340 341 341 343 344 343 337 340 337 329 330 329 329 329 329 330 329 332 330 331 332 331 331 330 333 335 335 336 337 337 338
328 329 328 330 328 333 333 334 333 335 334 333 337 339 340 341 339 339 338 339 342 342 342 341 331 316 331 328 329 328 329 327 329 329 330 326 324 329 325 328 327 327 328 328 329 330 333 333 335
328 329 328 328 328 330 332 332 333 333 332 333 336 339 339 339 338 339 339 338 339 337 335 329 322 318 326 329 329 327 328 329 328 327 329 328 328 328 327 327 324 325 325 327 328 328 327 328 331
328 327 328 328 329 331 330 331 331 335 335 332 337 337 338 339 340 339 337 337 337 333 330 332 330 335 331 323 326 328 328 327 327 327 328 328 328 327 325 322 324 321 322 325 322 323 324 327 327
327 327 328 328 329 330 331 330 333 331 333 333 336 336 336 339 340 339 336 337 334 330 331 327 328 325 322 328 322 324 328 328 327 326 327 327 326 325 323 323 322 321 323 322 321 320 321 322 324
327 328 328 329 330 330 331 329 331 333 337 331 335 337 336 341 341 338 335 332 330 332 334 331 329 330 330 329 324 328 325 327 328 328 327 327 325 326 324 323 322 321 320 320 319 321 322 320 322
328 329 329 330 329 329 331 330 332 334 335 336 334 335 337 339 336 338 332 329 329 333 333 330 324 328 329 324 324 325 327 327 326 325 324 323 322 326 325 323 324 323 320 320 318 319 319 321 320
330 330 329 329 329 328 327 328 329 333 334 333 332 332 334 340 337 336 329 329 330 334 334 333 331 329 331 329 330 330 329 327 326 325 324 323 322 324 325 324 324 324 321 320 318 317 317 318 319
328 328 328 329 330 329 328 329 329 329 330 329 329 331 331 340 339 334 329 331 333 333 334 335 334 333 333 333 333 333 332 329 324 326 326 323 325 325 324 324 323 323 322 320 319 321 320 320 317
328 329 330 330 330 329 329 329 329 329 329 329 329 330 333 341 339 337 331 331 332 333 334 335 335 334 335 336 335 333 328 326 325 321 322 322 321 320 321 321 320 319 316 314 316 315 317 318 318
329 330 330 328 327 327 328 329 330 332 331 330 331 333 336 340 339 336 332 330 331 332 334 335 335 336 335 330 325 324 321 317 318 319 319 318 317 317 317 317 317 315 314 317 318 317 316 317 317
329 329 328 326 326 326 327 326 332 331 329 331 332 332 333 335 339 337 333 331 331 333 333 330 329 327 325 324 322 322 321 320 319 318 317 316 316 315 314 314 315 317 316 315 315 314 316 317 318
328 328 329 328 328 329 328 327 331 330 330 328 329 332 332 334 334 334 329 333 333 332 327 324 324 324 323 323 322 320 320 318 319 317 316 315 315 316 315 315 315 315 314 313 313 312 312 313 315
330 330 329 328 329 330 330 328 332 331 329 328 329 329 330 332 332 335 334 332 329 327 324 323 322 321 321 320 320 319 318 317 316 316 315 314 314 313 314 313 314 313 312 311 311 310 310 310 311
330 330 329 331 330 331 330 328 331 329 327 326 327 327 328 329 329 332 331 330 326 324 323 322 321 320 320 319 318 317 316 316 316 315 315 314 312 312 312 312 312 313 312 311 311 311 310 310 309
329 329 332 331 327 326 328 328 331 328 327 326 326 326 326 327 328 326 326 326 324 323 322 321 320 319 318 316 315 315 317 316 316 315 312 312 311 311 311 313 313 312 311 311 310 311 310 309 310
329 330 328 328 331 330 330 330 328 328 328 327 327 326 327 327 327 327 326 324 323 322 321 320 319 318 316 315 316 317 317 316 314 313 311 311 311 311 311 311 312 311 310 310 309 309 309 309 309
329 329 329 330 334 330 328 329 331 330 329 328 327 326 324 327 327 325 324 323 322 321 319 319 318 316 315 316 317 317 315 314 313 312 312 311 311 311 310 311 311 310 309 309 309 308 308 309 310
330 328 329 330 330 332 331 330 330 329 328 328 326 325 325 325 324 324 323 321 320 319 319 318 316 315 315 317 317 316 314 313 313 312 311 310 310 310 310 311 310 309 309 309 308 308 308 309 309
329 328 327 329 329 330 330 329 330 328 327 327 327 325 324 324 323 323 322 320 319 319 318 316 315 315 316 317 316 314 314 313 312 311 310 309 308 309 310 309 309 309 309 308 307 308 308 308 308
Wind_Speed
9 11 17 10 5 3 3 19 17 14 13 15 21 25 23 13 7 7 7 9 23 5 5 8 9 9 9 8 8 7 6 5 5 5 5 6 7 7 7 7 7 6 6 6 5 5 5 6 6
11 1 7 10 4 6 8 20 16 10 11 17 19 21 25 18 21 16 14 11 11 4 4 8 8 7 7 7 6 5 4 3 2 2 3 3 4 4 5 5 4 4 4 4 4 4 4 4 4
13 4 8 7 4 5 6 14 13 16 16 15 21 20 13 20 15 14 12 10 9 11 3 1 5 6 6 6 5 3 1 1 1 3 4 4 4 4 4 4 5 5 5 5 6 6 6 7 6
10 10 12 6 16 17 15 14 14 19 15 23 16 15 18 16 18 14 11 7 10 12 3 1 6 6 6 5 3 2 0 2 4 4 5 6 7 7 7 8 8 8 8 8 8 9 9 9 10
16 14 3 12 11 16 12 11 15 15 13 27 23 18 19 15 14 13 11 12 13 9 5 4 6 5 4 3 2 2 2 3 5 6 8 9 10 11 11 11 11 12 11 12 12 12 12 12 11
18 3 8 15 11 13 11 10 16 15 19 25 25 21 16 13 12 12 12 10 11 8 7 6 4 3 2 1 1 3 5 7 8 9 11 12 13 14 14 15 14 14 14 15 15 15 15 15 14
19 4 11 5 9 14 7 16 19 14 14 25 26 16 16 13 12 13 12 10 10 9 6 9 12 9 6 4 4 4 5 7 8 9 11 12 14 14 11 14 15 16 16 17 18 18 17 17 16
15 10 13 14 14 9 0 18 19 16 11 13 12 15 14 14 13 13 11 10 9 7 8 2 5 7 5 10 11 7 9 10 12 13 14 15 15 14 15 17 14 13 19 21 21 21 20 19 19
14 6 6 12 15 10 8 17 14 11 11 17 19 24 20 17 15 13 11 12 10 6 8 8 10 9 3 5 11 9 12 9 13 13 13 14 20 17 9 15 16 16 19 16 18 18 18 20 23
12 5 9 5 21 8 10 13 10 14 15 16 18 20 19 16 14 11 12 11 13 11 5 6 9 8 5 2 9 9 8 12 8 6 8 10 9 15 11 13 17 20 17 15 16 17 17 20 23
9 6 9 7 14 9 15 15 6 14 8 10 19 20 17 15 13 12 16 13 11 8 8 7 9 7 6 6 8 4 5 7 7 14 11 10 11 15 11 10 13 16 18 13 16 18 20 23 24
6 3 8 11 10 4 7 13 7 22 10 14 22 18 17 18 16 14 10 12 11 8 10 7 4 8 11 9 7 5 7 3 7 9 12 12 9 14 12 13 14 13 10 13 16 17 18 22 20
7 6 4 3 5 11 5 1 5 29 14 10 19 17 18 19 21 17 12 12 10 12 8 8 7 10 12 10 4 6 3 7 8 9 13 17 12 14 17 12 13 14 14 14 17 18 22 27 22
5 6 2 2 9 6 8 5 9 11 21 9 15 15 18 18 13 19 16 13 12 13 12 7 6 10 5 5 7 6 8 6 7 9 14 13 15 11 15 13 14 14 16 14 16 19 21 21 20
9 8 10 10 6 6 2 11 8 11 9 10 11 14 18 17 21 17 16 17 13 16 14 10 4 2 4 1 3 3 6 11 9 8 14 16 16 15 13 16 14 16 15 15 12 20 22 22 20
12 15 13 13 7 6 2 11 11 22 9 9 15 18 20 14 16 13 20 17 15 13 14 14 9 2 4 6 6 7 11 11 12 14 17 16 15 14 14 16 18 19 21 16 22 22 22 23 24
14 12 12 9 9 1 7 7 7 11 12 11 13 19 17 19 14 14 20 17 13 9 6 4 4 4 9 7 12 12 8 12 15 16 15 20 23 18 19 21 18 19 19 14 20 23 28 25 23
13 8 8 1 1 7 7 12 12 17 14 11 11 17 18 12 22 29 8 12 14 8 6 3 2 7 10 13 12 13 14 16 16 20 23 23 27 22 22 24 23 19 17 15 21 26 30 27 28
10 10 9 9 0 2 9 12 15 8 10 5 13 12 21 7 23 24 19 21 11 8 3 4 6 10 12 12 12 15 15 20 23 21 21 28 27 25 26 26 14 19 20 21 22 22 24 26 27
9 10 10 12 12 6 11 15 15 12 3 7 13 14 14 10 14 12 24 16 13 9 9 9 8 11 10 11 15 18 19 17 19 21 18 12 19 18 19 17 21 22 27 30 26 25 29 29 25
11 11 9 11 15 14 18 18 20 13 7 7 8 11 9 10 14 11 16 14 12 9 6 4 7 10 12 20 16 16 19 23 19 19 22 22 26 26 23 21 25 32 27 24 21 23 25 27 26
8 11 11 13 12 11 14 11 13 9 3 4 1 5 11 13 12 13 8 12 9 2 6 8 10 16 14 18 20 17 18 18 22 25 25 29 32 35 36 32 25 20 19 26 29 31 26 24 23
11 12 13 12 12 13 17 6 8 6 9 8 11 2 4 8 14 10 21 15 8 11 8 7 8 11 12 13 16 20 20 25 23 28 31 31 24 21 18 18 22 24 26 28 31 31 32 33 31
10 13 20 17 14 11 3 3 12 8 7 7 10 7 10 10 8 7 15 10 8 1 3 7 10 11 13 17 20 21 24 27 29 31 34 30 31 31 24 24 27 29 31 30 28 27 24 27 33
12 12 9 2 4 4 7 7 9 9 8 9 8 9 4 3 4 10 9 4 4 7 7 10 13 18 21 22 23 21 27 30 29 27 27 28 34 30 29 26 25 22 24 24 23 22 23 22 22
13 6 7 7 11 15 16 3 8 12 11 8 4 5 10 9 12 11 10 8 7 9 12 15 16 19 17 17 25 29 25 25 22 26 32 32 31 24 21 21 21 23 25 24 25 24 24 23 26
10 7 10 6 14 10 11 15 12 5 8 6 1 4 6 8 4 8 9 5 7 12 13 17 16 16 22 25 24 22 24 29 33 31 28 27 23 22 22 25 28 29 29 30 32 27 29 26 23
5 4 4 5 5 9 13 7 7 9 10 10 13 16 19 2 2 7 9 9 6 9 15 13 17 19 22 24 21 23 27 30 31 29 27 30 25 23 24 27 28 31 31 33 26 29 25 22 20
4 9 5 1 5 8 8 2 10 6 5 9 13 13 12 9 6 7 9 11 10 11 13 16 19 20 22 21 22 23 27 28 26 28 28 24 23 23 26 23 30 32 30 26 24 21 19 18 17
7 6 6 4 7 10 9 9 6 4 7 7 3 9 7 8 9 10 11 12 12 14 14 16 19 21 20 21 22 23 22 25 29 29 26 26 24 23 25 31 29 24 23 21 18 16 13 14 15
Wind_Direction
331 12 16 36 26 339 33 69 57 47 65 60 55 76 74 77 81 127 114 118 133 127 123 131 131 130 127 123 115 108 99 88 78 67 54 49 48 45 40 37 35 31 29 26 23 17 13 9 4
334 273 261 109 354 331 77 74 68 63 124 104 91 73 79 85 87 106 113 113 99 71 127 138 141 133 127 122 117 117 118 112 92 77 57 35 29 23 19 13 10 4 359 352 344 335 332 330 329
335 19 275 130 158 180 48 88 98 90 56 92 92 68 58 85 98 110 119 126 133 139 178 109 140 141 141 136 133 137 134 72 4 6 359 351 344 337 330 323 318 316 315 313 308 306 305 304 300
326 299 224 286 204 222 73 77 58 103 100 84 91 76 66 79 98 107 112 119 107 134 134 300 184 163 160 161 161 181 268 332 332 325 322 321 317 315 310 306 301 298 297 297 299 301 300 300 300
293 256 319 314 104 80 78 60 71 74 81 98 92 92 91 93 100 104 97 97 94 103 39 141 167 166 166 168 190 247 261 281 301 311 314 314 315 310 307 303 299 295 292 293 294 295 295 293 291
280 266 68 255 64 82 82 65 71 100 98 114 94 92 104 114 106 108 110 104 93 89 39 88 118 143 157 197 277 305 319 325 322 322 320 317 314 309 307 306 304 299 296 293 293 294 294 291 287
271 228 189 138 36 0 60 62 64 77 84 68 107 105 125 112 117 117 114 111 111 105 44 45 64 65 61 34 8 351 349 344 344 342 337 331 327 319 314 332 324 312 308 303 296 293 292 288 282
308 303 159 158 85 299 116 83 77 79 59 103 108 143 122 128 128 121 117 112 107 110 115 138 76 37 37 56 39 32 35 28 18 12 355 348 342 341 328 337 330 329 325 314 301 296 293 288 281
284 315 127 130 141 153 169 98 95 116 127 65 100 107 127 132 130 125 132 141 116 90 85 49 145 66 96 74 16 20 23 16 3 2 344 344 337 333 323 322 335 323 309 317 316 304 298 294 288
276 292 237 64 112 194 139 109 131 131 110 105 99 116 131 136 135 145 173 130 104 105 114 144 100 90 81 107 358 5 18 14 15 343 325 331 320 325 330 345 337 328 330 335 331 313 307 303 308
283 23 25 79 26 350 101 104 172 85 104 126 135 139 145 151 162 171 131 104 112 111 110 100 129 137 122 68 48 63 43 33 344 344 8 351 15 332 314 1 7 349 344 350 323 318 314 312 306
290 6 350 48 26 355 307 134 201 102 256 210 150 152 160 181 176 132 125 128 119 122 115 118 94 114 117 96 92 102 53 339 10 354 328 337 342 336 323 340 316 323 309 317 318 306 302 297 299
267 286 110 29 321 298 69 166 133 131 168 192 142 166 187 203 175 133 111 126 139 140 147 144 140 109 116 120 120 52 15 8 13 343 313 320 330 329 322 323 341 326 329 309 303 301 317 311 312
5 339 268 251 257 347 323 273 201 175 201 166 154 184 211 212 186 142 141 157 154 144 135 122 89 97 34 40 48 49 343 342 334 322 321 332 319 312 320 320 330 330 312 302 331 321 314 313 313
293 269 228 220 241 289 106 289 207 339 138 175 193 224 234 215 175 139 159 155 157 148 153 132 117 56 101 248 333 345 309 316 298 309 314 309 311 314 317 322 316 323 319 333 310 324 315 303 303
256 251 261 184 143 175 183 295 282 203 140 240 218 228 231 349 229 148 150 146 157 154 152 145 146 99 305 321 312 300 304 304 332 314 308 307 300 286 310 299 298 300 306 299 312 313 310 311 301
230 271 215 168 149 218 193 288 105 181 206 231 267 255 243 181 74 221 137 139 156 165 127 139 204 221 272 277 294 322 335 314 307 310 307 305 309 296 283 291 287 285 299 295 302 298 306 303 318
344 243 22 307 74 137 260 302 293 202 213 232 270 275 274 196 228 128 90 185 170 177 168 185 237 270 279 310 319 322 303 300 288 291 294 296 299 294 284 279 282 288 297 293 294 297 289 304 296
335 325 306 299 79 3 286 292 300 303 250 315 300 276 284 201 128 134 225 179 160 181 217 270 273 290 302 314 307 304 287 283 299 310 303 298 295 291 287 284 279 276 278 281 281 295 297 288 286
321 296 309 335 5 331 281 275 284 286 72 344 320 297 274 162 138 151 190 178 182 200 226 243 287 299 281 283 284 290 303 306 296 303 300 321 318 306 294 289 292 286 300 300 294 291 288 283 281
305 360 8 327 311 293 266 269 243 81 52 13 325 317 324 182 172 174 179 203 221 222 238 248 218 247 279 293 299 289 288 302 318 298 299 305 294 302 306 298 292 296 299 294 292 288 289 291 288
308 12 325 304 301 294 333 299 98 109 107 145 298 304 300 301 207 201 215 215 228 315 327 328 309 300 306 299 313 311 327 315 303 304 300 294 292 293 296 300 302 292 284 285 286 286 280 283 282
323 325 284 270 270 281 269 244 144 166 93 42 30 344 271 278 307 152 198 224 224 275 303 318 335 328 316 320 322 320 315 311 308 305 306 303 308 320 318 302 292 289 288 289 288 288 284 279 280
289 301 311 276 250 245 158 305 97 91 58 41 60 19 353 332 308 118 112 61 344 119 319 314 326 315 314 316 315 312 312 309 312 308 309 306 299 299 287 303 299 298 298 298 295 291 291 282 273
358 357 323 278 283 194 195 259 84 108 79 59 41 16 8 315 308 77 330 3 63 2 1 334 319 320 318 314 315 311 311 308 307 312 314 306 303 291 291 288 289 290 291 293 297 296 294 296 298
303 341 334 338 318 322 310 254 112 91 85 81 48 40 341 340 349 354 358 355 342 337 334 329 322 320 321 317 315 316 312 307 306 301 309 308 309 301 291 294 293 288 294 296 293 287 290 291 285
350 338 344 299 271 257 285 92 95 120 137 154 52 343 300 276 335 312 308 353 323 320 321 322 319 319 317 316 316 315 310 310 312 312 314 311 308 303 295 287 289 298 295 295 296 286 286 289 289
281 342 335 227 301 322 332 350 77 41 38 15 354 343 327 139 293 298 292 298 307 313 323 319 317 321 318 317 315 310 310 313 310 310 305 306 301 304 301 295 293 298 299 302 294 285 286 276 281
304 311 256 338 289 298 298 36 83 53 14 12 3 339 343 6 347 338 350 332 335 328 323 319 323 319 318 315 312 313 314 321 317 310 308 306 301 304 305 296 299 302 299 299 295 289 275 275 287
313 311 344 312 300 307 322 301 56 20 28 13 60 347 1 340 320 314 315 332 337 332 325 327 320 322 317 313 314 317 320 311 308 308 312 308 308 303 300 303 305 308 303 301 301 288 270 274 284